Change the Weather History Date:

Wednesday, August 14, 2013

  Actual Average Record
Temperature  
Mean Temperature 61 °F 72 °F  
Max Temperature 74 °F 83 °F 101 °F (1988)
Min Temperature 47 °F 61 °F 39 °F (1964)
Degree Days  
Heating Degree Days 4 0  
Month to date heating degree days 5 0  
Since 1 June heating degree days 57 30  
Since 1 July heating degree days 19 4  
Cooling Degree Days 0 7  
Month to date cooling degree days 50 104  
Year to date cooling degree days 526 608  
Since 1 June cooling degree days 473 552  
Growing Degree Days 10 (Base 50)    
Moisture  
Dew Point 51 °F    
Average Humidity 69    
Maximum Humidity 100    
Minimum Humidity 38    
Precipitation  
Precipitation 0.00 in 0.14 in 3.80 in (1945)
Month to date precipitation 1.53 2.00  
Year to date precipitation 33.82 24.01  
Snow  
Snow 0.00 in 0.00 in - ()
Month to date snowfall 0.0 0.0  
Since 1 June snowfall 0.0 0.0  
Since 1 July snowfall 0.0 0.0  
Snow Depth 0.00 in    
Sea Level Pressure  
Sea Level Pressure 30.19 in    
Wind  
Wind Speed 2 mph (SW)    
Max Wind Speed 8 mph    
Max Gust Speed -    
Visibility 10 miles    
Events      
T = Trace of Precipitation, MM = Missing Value Source: NWS Daily Summary

Daily Weather History Graph

Daily Weather History Graph

Search for Another Location

Airport or City:

Trip Planner

Search our weather history database for the weather conditions in past years. The results will help you decide how hot, cold, wet, or windy it might be!

Date:

Astronomy

Aug. 14, 2013 Rise Set
Actual Time 6:15 AM CDT 8:12 PM CDT
Civil Twilight 5:45 AM CDT 8:42 PM CDT
Nautical Twilight 5:07 AM CDT 9:19 PM CDT
Astronomical Twilight 4:27 AM CDT 9:59 PM CDT
Moon 2:26 PM CDT (8/14) No Moon Set
Length of Visible Light 14h 57m
Length of Day
13h 56m
First Quarter, 53% of the Moon is Illuminated
Aug 14
First Quarter
Aug 20
Full
Aug 28
Last Quarter
Sep 5
New
Sep 12
First Quarter

Hourly Weather History & Observations

Time (CDT) Temp. Dew Point Humidity Pressure Visibility Wind Dir Wind Speed Gust Speed Precip Events Conditions
12:54 AM 53.1 °F 52.0 °F 96% 30.19 in 10.0 mi WNW 3.5 mph - N/A   Clear
1:54 AM 51.1 °F 50.0 °F 96% 30.19 in 10.0 mi Calm Calm - N/A   Clear
2:54 AM 50.0 °F 48.0 °F 93% 30.19 in 10.0 mi Calm Calm - N/A   Clear
3:54 AM 51.1 °F 48.9 °F 92% 30.20 in 10.0 mi Calm Calm - N/A   Clear
4:30 AM 50.0 °F 48.2 °F 94% 30.21 in 10.0 mi Calm Calm - N/A   Partly Cloudy
4:54 AM 50.0 °F 48.9 °F 96% 30.21 in 10.0 mi Calm Calm - N/A   Clear
5:05 AM 48.2 °F 48.2 °F 100% 30.21 in 9.0 mi Calm Calm - N/A   Scattered Clouds
5:54 AM 48.9 °F 48.0 °F 97% 30.20 in 10.0 mi Calm Calm - N/A   Clear
6:54 AM 48.9 °F 48.0 °F 97% 30.21 in 10.0 mi Calm Calm - N/A   Clear
7:54 AM 55.9 °F 53.1 °F 90% 30.22 in 10.0 mi Calm Calm - N/A   Clear
8:54 AM 61.0 °F 55.0 °F 81% 30.22 in 10.0 mi Calm Calm - N/A   Clear
9:07 AM 62.6 °F 55.4 °F 77% 30.23 in 10.0 mi Calm Calm - N/A   Partly Cloudy
9:54 AM 66.0 °F 53.1 °F 63% 30.23 in 10.0 mi SSW 4.6 mph - N/A   Clear
10:54 AM 69.1 °F 51.1 °F 53% 30.23 in 10.0 mi SW 4.6 mph - N/A   Clear
11:54 AM 72.0 °F 51.1 °F 48% 30.22 in 10.0 mi West 5.8 mph - N/A   Clear
12:54 PM 70.0 °F 45.0 °F 41% 30.21 in 10.0 mi Calm Calm - N/A   Partly Cloudy
2:54 PM 73.0 °F 46.9 °F 39% 30.18 in 10.0 mi SSE 4.6 mph - N/A   Mostly Cloudy
3:54 PM 73.9 °F 46.9 °F 38% 30.16 in 10.0 mi Variable 4.6 mph - N/A   Clear
4:54 PM 72.0 °F 46.9 °F 41% 30.16 in 10.0 mi SSW 6.9 mph - N/A   Clear
5:54 PM 71.1 °F 48.0 °F 44% 30.15 in 10.0 mi Calm Calm - N/A   Clear
6:54 PM 70.0 °F 55.9 °F 61% 30.14 in 10.0 mi Calm Calm - N/A   Clear
7:54 PM 66.0 °F 53.1 °F 63% 30.14 in 10.0 mi Calm Calm - N/A   Clear
8:54 PM 62.1 °F 57.0 °F 84% 30.14 in 10.0 mi Calm Calm - N/A   Clear
9:54 PM 60.1 °F 57.0 °F 90% 30.15 in 10.0 mi Calm Calm - N/A   Clear
10:54 PM 57.9 °F 55.9 °F 93% 30.15 in 10.0 mi Calm Calm - N/A   Clear
11:54 PM 59.0 °F 55.9 °F 90% 30.14 in 10.0 mi Calm Calm - N/A   Clear